Temp
75 76 75 73 63 57 51 59 64 63 65 71 75 72 67 68 66 56 71 77 77 73 72 78 79 79 79 79 79 78 78 78 78 78 79 78 78 78 78 78 77 78 78 79 80 80 79 79 79
76 79 74 66 56 48 52 63 61 64 71 75 75 74 70 66 73 70 71 78 77 74 71 74 79 79 79 79 78 78 78 78 78 78 78 77 77 77 77 78 78 78 78 77 77 78 77 78 78
79 82 66 57 51 50 51 62 66 68 72 72 71 75 73 68 73 72 76 78 76 71 72 73 79 79 79 79 78 78 78 78 78 78 77 77 77 77 77 78 78 78 77 77 77 77 77 77 77
75 72 64 55 51 57 62 66 68 69 71 74 73 68 75 80 77 78 79 79 74 70 71 77 79 79 79 78 78 78 77 77 77 78 78 77 77 77 77 77 78 78 78 78 78 77 77 77 77
75 66 57 54 56 63 66 70 69 66 68 70 73 67 68 77 79 78 78 80 75 71 71 74 79 79 79 79 78 77 77 78 78 78 78 77 77 77 77 77 78 78 78 78 78 78 78 78 78
68 64 56 52 57 64 67 71 71 70 68 70 70 68 67 77 77 77 77 75 76 72 72 73 79 79 79 78 78 78 78 77 77 77 77 77 77 77 77 77 77 78 78 78 78 78 78 77 77
66 60 56 54 57 62 66 69 65 65 68 68 72 64 68 73 76 75 73 71 73 71 71 71 72 76 78 78 78 78 77 77 77 76 76 76 75 76 77 78 77 78 77 78 78 78 77 77 77
65 61 55 56 56 58 69 69 67 69 68 75 76 63 61 70 74 73 71 70 69 68 68 66 68 70 69 71 78 77 77 77 76 75 74 73 72 73 75 75 77 77 77 76 76 76 76 75 75
68 55 52 57 58 62 66 65 70 74 70 73 74 71 74 75 74 70 68 67 65 68 65 66 66 68 68 70 75 75 77 75 73 70 73 66 62 64 66 74 74 75 74 74 74 74 74 73 71
64 55 60 67 68 63 68 66 68 70 68 69 71 74 75 74 71 67 64 62 61 63 64 63 64 66 68 75 66 65 68 63 63 62 62 61 59 63 67 69 72 71 72 72 71 71 70 68 62
63 62 67 70 71 71 68 67 69 68 63 69 68 69 71 70 67 65 64 62 62 61 64 64 64 64 65 65 62 62 61 60 61 62 61 59 60 58 59 59 59 58 66 61 62 61 61 59 61
65 70 70 71 74 71 68 70 68 68 69 74 74 73 70 67 65 64 63 62 63 61 61 62 63 63 62 62 61 61 60 60 60 60 60 58 57 57 57 58 57 57 57 57 57 56 58 59 61
66 69 72 74 73 71 73 69 70 69 74 75 75 74 70 66 65 64 64 63 60 61 62 62 62 62 62 62 60 59 60 60 60 59 60 58 57 56 57 56 56 56 56 55 55 54 55 56 58
69 69 70 69 70 73 71 67 71 71 74 74 73 70 69 68 66 63 63 62 61 61 62 63 62 61 62 61 60 59 59 59 59 59 60 59 56 56 56 55 55 55 55 54 53 53 53 54 55
67 65 68 68 69 69 72 64 67 72 74 72 72 72 70 68 68 66 65 63 62 61 62 62 62 62 62 61 60 59 60 61 59 59 60 60 57 56 55 54 54 54 54 54 53 53 53 53 55
64 61 58 67 71 70 69 57 69 72 72 70 71 72 71 68 68 67 66 64 63 62 61 62 68 62 61 59 60 59 59 58 59 58 58 61 59 57 55 54 53 54 53 52 52 51 51 51 51
60 54 57 63 70 68 66 60 70 73 72 69 70 69 70 67 67 67 68 66 63 62 61 60 61 61 61 60 60 59 59 58 58 57 58 60 61 59 55 53 54 53 52 51 50 50 49 49 49
60 56 57 61 68 67 64 63 66 71 72 71 70 67 69 68 68 68 68 67 64 62 61 59 59 59 60 58 57 57 57 57 57 57 58 60 59 60 55 54 54 53 52 50 50 49 50 49 48
68 62 63 66 71 67 64 66 64 70 71 69 69 69 68 69 70 68 68 68 65 63 61 59 58 58 57 57 57 56 56 56 56 57 60 59 59 59 56 53 53 52 51 50 50 49 48 48 49
67 63 62 67 70 65 64 62 64 69 70 71 69 70 71 69 66 66 66 66 65 63 62 59 58 57 57 56 56 56 56 57 57 57 58 59 59 59 57 54 53 52 51 50 50 49 48 48 48
64 63 64 65 65 64 61 59 59 66 69 71 71 72 72 69 68 65 65 64 64 62 61 60 59 57 58 58 57 56 56 56 56 56 55 58 60 60 57 55 53 52 50 50 49 49 48 46 48
61 72 70 69 60 54 59 50 57 59 62 68 70 72 73 72 73 68 65 64 64 64 62 62 60 57 58 58 57 56 54 54 54 54 55 56 59 59 59 57 55 53 51 51 50 52 49 47 46
67 72 67 65 55 52 56 52 56 58 60 64 69 73 73 75 73 70 68 67 65 64 62 62 60 58 58 57 57 55 54 53 54 54 55 54 55 57 59 57 55 53 52 52 51 51 49 48 47
75 68 62 56 53 47 52 52 54 55 62 65 67 69 72 71 73 72 70 67 64 64 63 61 59 58 58 57 57 56 55 54 53 53 53 53 53 54 56 58 54 54 53 53 52 52 51 49 48
68 58 49 49 46 47 53 52 56 63 66 67 67 69 69 70 69 70 68 66 62 61 62 62 60 59 59 57 57 56 56 55 55 55 54 53 53 53 55 54 54 54 55 54 53 52 52 51 50
61 59 51 43 43 48 55 49 59 66 67 68 66 66 64 64 66 68 68 66 63 64 62 62 61 59 57 57 57 59 60 55 55 55 53 53 53 54 55 55 54 55 56 55 54 52 52 51 51
62 57 61 53 50 47 50 57 65 64 66 63 64 67 65 63 66 67 69 64 63 64 65 63 61 59 58 58 60 59 59 57 56 55 54 53 54 56 56 56 56 56 55 55 53 53 52 52 51
65 67 57 51 44 41 48 50 53 60 61 60 62 63 63 62 64 66 67 66 64 66 64 62 62 61 60 58 59 59 61 59 56 55 55 54 55 55 56 57 56 56 56 55 54 53 53 52 53
62 57 54 52 50 44 42 50 59 60 60 59 60 61 60 60 61 63 65 63 63 62 62 62 61 61 60 59 58 57 58 57 56 55 56 56 55 55 56 57 57 56 56 56 54 53 53 53 53
64 60 57 51 49 47 47 50 61 59 59 61 60 62 60 61 61 63 64 62 62 62 61 60 60 60 61 60 58 57 58 57 56 56 56 56 55 56 56 57 56 57 57 56 55 55 56 55 54
MSLP
1012.30 1012.34 1012.56 1012.98 1014.41 1015.36 1016.13 1015.63 1015.37 1015.29 1015.19 1014.96 1014.97 1015.31 1016.23 1016.46 1016.80 1017.63 1016.94 1016.72 1016.73 1017.15 1017.43 1017.45 1017.54 1017.56 1017.58 1017.65 1017.57 1017.46 1017.42 1017.41 1017.34 1017.29 1017.23 1017.18 1017.24 1017.21 1017.17 1017.05 1017.02 1016.99 1016.86 1016.63 1016.27 1016.08 1016.02 1015.88 1015.72
1012.27 1012.76 1012.69 1013.67 1015.41 1016.75 1016.79 1015.90 1015.54 1015.09 1015.17 1015.06 1015.06 1015.46 1015.81 1016.58 1016.67 1017.04 1016.96 1016.72 1016.96 1017.40 1017.73 1017.70 1017.64 1017.69 1017.71 1017.72 1017.64 1017.54 1017.53 1017.53 1017.49 1017.46 1017.39 1017.32 1017.34 1017.32 1017.30 1017.25 1017.18 1016.95 1016.79 1016.71 1016.55 1016.36 1016.28 1015.95 1015.82
1012.41 1012.51 1013.62 1015.28 1017.09 1017.33 1016.92 1016.31 1015.78 1015.61 1015.31 1014.98 1015.34 1015.53 1015.71 1016.49 1016.66 1016.66 1016.45 1016.94 1017.33 1017.75 1017.91 1017.77 1017.74 1017.77 1017.73 1017.79 1017.77 1017.73 1017.69 1017.70 1017.64 1017.54 1017.50 1017.45 1017.43 1017.49 1017.39 1017.32 1017.13 1016.97 1016.79 1016.67 1016.61 1016.45 1016.30 1016.09 1015.82
1012.62 1012.98 1014.99 1016.52 1017.45 1017.31 1016.52 1016.44 1016.00 1015.66 1015.72 1015.53 1015.46 1015.97 1015.99 1015.67 1016.01 1016.29 1016.54 1017.02 1017.64 1018.07 1017.89 1017.64 1017.66 1017.69 1017.75 1017.79 1017.75 1017.91 1017.85 1017.85 1017.76 1017.71 1017.71 1017.69 1017.58 1017.53 1017.49 1017.38 1017.20 1016.99 1016.82 1016.60 1016.50 1016.39 1016.16 1016.01 1015.80
1012.64 1013.71 1015.94 1017.26 1017.47 1017.04 1016.60 1016.69 1016.18 1015.88 1015.93 1015.66 1015.52 1016.25 1016.44 1016.36 1016.27 1016.74 1017.19 1017.25 1017.81 1018.05 1017.88 1017.80 1017.76 1017.73 1017.83 1017.93 1018.05 1018.19 1018.17 1018.15 1018.10 1017.98 1017.87 1017.80 1017.75 1017.66 1017.61 1017.49 1017.25 1017.10 1016.88 1016.70 1016.40 1016.19 1016.08 1015.83 1015.53
1013.70 1015.20 1017.23 1018.07 1017.90 1017.31 1016.86 1016.71 1016.49 1016.00 1016.08 1015.88 1016.01 1016.34 1017.31 1017.10 1017.06 1017.40 1017.55 1017.70 1017.81 1018.10 1018.02 1017.97 1017.87 1017.87 1018.03 1018.20 1018.39 1018.52 1018.41 1018.36 1018.28 1018.14 1017.95 1017.59 1017.78 1017.79 1017.61 1017.52 1017.43 1017.17 1016.99 1016.74 1016.43 1016.12 1015.95 1015.83 1015.55
1014.46 1016.09 1017.80 1018.31 1017.97 1017.26 1016.74 1016.62 1016.68 1016.47 1016.05 1016.12 1016.15 1016.97 1017.93 1017.82 1017.91 1017.96 1018.08 1018.21 1018.28 1018.26 1018.30 1018.40 1018.21 1018.06 1018.18 1018.33 1018.55 1018.64 1018.65 1018.58 1018.50 1018.40 1018.22 1018.10 1018.11 1017.97 1017.66 1017.44 1017.47 1017.13 1017.06 1016.85 1016.61 1016.23 1016.02 1015.81 1015.55
1014.80 1016.59 1018.07 1018.04 1017.77 1017.08 1016.52 1016.60 1016.87 1016.74 1016.68 1016.47 1016.47 1017.20 1018.28 1018.43 1018.43 1018.63 1018.87 1018.99 1019.01 1019.05 1018.97 1018.85 1018.63 1018.59 1018.60 1018.57 1018.60 1018.77 1018.88 1018.79 1018.71 1018.59 1018.62 1018.57 1018.48 1018.32 1018.05 1017.80 1017.61 1017.39 1017.26 1017.05 1016.82 1016.55 1016.26 1015.97 1015.74
1014.87 1016.58 1017.52 1017.33 1017.35 1016.76 1016.50 1016.76 1016.88 1016.76 1016.81 1016.65 1016.76 1017.17 1017.93 1018.88 1019.19 1019.41 1019.50 1019.63 1019.82 1019.83 1019.62 1019.17 1018.99 1018.84 1018.84 1018.82 1018.81 1018.97 1019.02 1019.14 1019.02 1018.94 1018.90 1018.90 1018.87 1018.71 1018.47 1018.07 1017.99 1017.68 1017.47 1017.25 1017.02 1016.79 1016.54 1016.21 1015.97
1014.95 1016.37 1016.29 1016.05 1016.08 1016.30 1016.42 1016.81 1016.77 1016.84 1017.02 1017.35 1017.51 1017.91 1018.50 1019.09 1019.56 1019.84 1020.23 1020.32 1020.23 1019.98 1019.81 1019.57 1019.29 1019.02 1018.89 1018.88 1019.29 1019.42 1019.52 1019.63 1019.38 1019.31 1019.24 1019.22 1019.18 1018.88 1018.69 1018.51 1018.24 1018.03 1017.82 1017.54 1017.33 1017.10 1016.88 1016.52 1016.27
1014.67 1014.99 1015.15 1015.12 1015.38 1015.53 1016.30 1016.84 1016.59 1016.53 1016.86 1016.67 1017.04 1017.84 1018.53 1019.04 1019.39 1019.70 1020.10 1020.15 1020.10 1020.04 1020.04 1019.90 1019.62 1019.46 1019.33 1019.43 1019.62 1019.76 1019.93 1019.83 1019.56 1019.52 1019.50 1019.49 1019.42 1019.27 1019.08 1018.93 1018.85 1018.68 1018.25 1018.07 1017.69 1017.35 1017.10 1016.88 1016.53
1014.04 1014.26 1014.39 1014.45 1014.81 1015.31 1015.87 1016.26 1016.56 1016.51 1016.36 1016.57 1017.16 1017.71 1018.64 1019.33 1019.61 1019.60 1019.83 1020.03 1020.08 1020.20 1020.13 1020.10 1019.80 1019.78 1019.70 1019.79 1019.77 1019.77 1020.03 1019.82 1019.84 1019.81 1019.66 1019.65 1019.65 1019.53 1019.54 1019.41 1019.38 1019.15 1018.79 1018.47 1018.12 1017.77 1017.42 1017.05 1016.66
1013.81 1013.84 1014.13 1014.00 1014.31 1015.11 1015.70 1015.89 1016.01 1016.29 1016.23 1016.72 1017.50 1018.19 1018.77 1019.21 1019.37 1019.61 1019.73 1020.05 1020.31 1020.37 1020.27 1020.23 1020.05 1020.05 1020.05 1020.06 1020.21 1020.14 1020.09 1020.02 1020.00 1019.90 1019.73 1019.71 1019.79 1019.83 1019.68 1019.62 1019.51 1019.31 1019.02 1018.74 1018.45 1018.06 1017.66 1017.20 1016.80
1014.01 1013.96 1014.22 1014.55 1014.76 1014.95 1015.63 1015.93 1015.64 1015.99 1016.09 1016.93 1017.42 1017.86 1018.24 1018.48 1018.90 1019.66 1019.93 1020.01 1020.14 1020.24 1020.16 1020.16 1020.26 1020.13 1019.98 1020.08 1020.11 1020.19 1020.22 1020.23 1020.19 1020.00 1019.87 1019.85 1019.88 1019.88 1019.81 1019.73 1019.58 1019.37 1019.13 1018.88 1018.68 1018.35 1017.86 1017.44 1016.95
1014.34 1014.62 1014.74 1014.83 1015.04 1015.32 1015.57 1016.27 1015.67 1015.74 1016.27 1016.94 1017.48 1017.67 1017.94 1018.35 1018.76 1018.97 1019.42 1019.80 1019.88 1020.08 1020.02 1020.02 1019.91 1019.95 1019.82 1019.83 1020.10 1020.24 1020.08 1020.17 1020.31 1020.20 1020.08 1019.92 1019.92 1019.91 1019.98 1020.02 1019.84 1019.60 1019.28 1018.91 1018.69 1018.37 1017.85 1017.35 1016.93
1014.67 1015.09 1015.07 1014.84 1015.09 1015.17 1015.24 1015.10 1015.49 1015.84 1016.18 1016.58 1016.91 1017.34 1017.74 1018.12 1018.53 1018.92 1019.23 1019.56 1019.69 1019.94 1020.20 1020.10 1019.74 1019.76 1019.76 1019.84 1020.02 1020.37 1020.30 1020.27 1020.31 1020.27 1020.23 1020.07 1019.97 1019.90 1019.97 1020.02 1020.00 1019.72 1019.42 1019.13 1018.87 1018.73 1018.23 1017.66 1017.23
1014.80 1015.04 1014.95 1014.70 1014.40 1015.07 1015.52 1014.73 1014.85 1015.50 1015.82 1016.21 1016.56 1016.77 1017.32 1017.98 1018.38 1018.73 1019.00 1019.28 1019.52 1019.66 1020.07 1020.23 1020.09 1020.05 1020.09 1020.02 1019.98 1020.44 1020.42 1020.54 1020.54 1020.49 1020.45 1020.18 1020.13 1020.02 1020.05 1020.06 1020.01 1019.87 1019.68 1019.50 1019.30 1018.92 1018.68 1018.24 1017.61
1014.27 1014.39 1014.17 1014.08 1013.99 1014.70 1015.23 1014.57 1014.67 1014.78 1015.00 1015.42 1016.39 1016.76 1016.90 1017.19 1017.36 1018.13 1018.64 1019.00 1019.31 1019.53 1019.85 1020.23 1020.36 1020.28 1020.24 1020.32 1020.38 1020.41 1020.46 1020.63 1020.63 1020.63 1020.47 1020.23 1020.21 1020.17 1020.25 1020.18 1020.03 1020.02 1019.91 1019.73 1019.38 1019.23 1018.86 1018.61 1018.27
1012.97 1013.61 1013.64 1013.14 1013.27 1014.02 1014.26 1014.29 1014.58 1014.61 1014.88 1015.16 1015.65 1016.22 1016.45 1016.58 1016.99 1017.74 1018.32 1018.79 1019.11 1019.52 1019.88 1020.10 1020.18 1020.17 1020.33 1020.43 1020.66 1020.81 1020.84 1020.90 1020.84 1020.56 1020.46 1020.43 1020.36 1020.32 1020.41 1020.43 1020.27 1020.08 1020.16 1020.06 1019.76 1019.52 1019.44 1019.00 1018.41
1012.62 1012.91 1013.24 1012.95 1013.22 1013.90 1014.41 1014.72 1014.24 1014.16 1013.86 1014.78 1015.34 1015.78 1015.97 1016.46 1016.95 1017.79 1018.32 1018.40 1018.39 1018.85 1019.55 1020.05 1020.19 1020.03 1020.24 1020.46 1020.38 1020.41 1020.61 1020.62 1020.52 1020.48 1020.43 1020.30 1020.37 1020.43 1020.48 1020.50 1020.41 1020.31 1020.25 1020.06 1019.94 1019.81 1019.79 1019.49 1019.10
1012.19 1012.61 1012.74 1013.15 1013.99 1014.39 1014.74 1015.08 1014.86 1014.34 1014.52 1014.31 1014.93 1015.04 1014.86 1015.44 1016.05 1016.83 1017.34 1017.37 1018.04 1018.42 1019.14 1019.87 1020.04 1020.12 1020.24 1020.30 1020.45 1020.42 1020.55 1020.77 1020.83 1020.83 1020.74 1020.61 1020.40 1020.28 1020.43 1020.48 1020.44 1020.33 1020.29 1020.19 1020.04 1019.96 1020.02 1019.99 1019.46
1011.62 1011.43 1012.44 1013.28 1014.22 1015.05 1015.40 1016.01 1015.15 1015.20 1014.89 1014.48 1014.43 1013.70 1013.72 1013.48 1014.17 1015.09 1015.83 1016.64 1017.26 1018.12 1018.53 1018.78 1019.45 1019.74 1019.84 1020.13 1020.25 1020.52 1020.70 1020.92 1020.92 1020.82 1020.82 1020.37 1020.39 1020.39 1020.15 1020.27 1020.34 1020.13 1020.23 1020.25 1019.94 1019.83 1019.97 1020.04 1019.96
1011.28 1011.60 1012.89 1013.88 1014.70 1015.50 1015.98 1016.29 1015.23 1015.20 1014.68 1013.94 1013.39 1013.28 1013.13 1012.84 1013.26 1013.82 1014.44 1015.04 1016.46 1017.72 1017.88 1018.17 1018.98 1019.42 1019.26 1019.60 1019.99 1020.25 1020.63 1020.47 1020.44 1020.58 1020.52 1020.36 1020.16 1020.25 1020.04 1020.01 1020.04 1019.93 1019.90 1019.91 1019.80 1019.76 1019.79 1019.88 1019.93
1010.70 1012.09 1013.60 1014.89 1015.57 1016.49 1016.56 1016.67 1015.55 1014.89 1014.09 1013.50 1012.86 1012.78 1012.71 1012.40 1012.12 1012.72 1013.60 1014.75 1016.10 1016.98 1017.04 1018.08 1018.66 1019.02 1018.99 1019.13 1019.62 1020.08 1020.37 1020.48 1020.62 1020.78 1020.81 1020.76 1020.52 1020.32 1020.12 1019.95 1020.02 1019.85 1019.61 1019.51 1019.32 1019.28 1019.39 1019.49 1019.62
1011.32 1012.89 1014.93 1016.16 1016.70 1017.09 1016.51 1016.53 1014.79 1013.91 1013.42 1013.30 1013.57 1013.22 1012.47 1011.65 1011.96 1012.22 1012.98 1014.50 1016.03 1017.42 1017.26 1018.33 1018.71 1018.91 1019.03 1018.99 1019.46 1019.87 1020.08 1020.14 1020.28 1020.32 1020.43 1020.58 1020.50 1020.20 1019.86 1019.76 1019.75 1019.69 1019.34 1019.14 1019.10 1019.10 1018.89 1018.86 1019.06
1012.26 1013.25 1015.05 1016.60 1017.53 1017.37 1016.74 1016.00 1013.94 1013.39 1013.56 1013.70 1014.04 1013.79 1012.91 1012.15 1011.88 1012.32 1013.24 1014.25 1014.73 1017.60 1018.72 1019.81 1019.26 1018.85 1019.37 1019.24 1019.24 1019.68 1020.08 1020.02 1020.04 1019.95 1020.12 1020.19 1020.08 1019.72 1019.40 1019.49 1019.49 1019.31 1019.11 1018.87 1018.71 1018.90 1018.78 1018.60 1018.47
1012.16 1013.39 1014.34 1016.05 1017.39 1017.66 1016.91 1015.49 1013.74 1013.63 1014.15 1014.44 1014.47 1013.55 1013.28 1012.98 1012.34 1012.49 1012.74 1013.99 1015.19 1016.44 1016.37 1017.26 1018.98 1019.45 1019.72 1019.74 1019.65 1019.98 1020.10 1019.96 1019.61 1019.70 1019.89 1019.88 1019.71 1019.40 1019.22 1019.09 1019.23 1018.98 1018.83 1018.55 1018.53 1018.59 1018.37 1018.24 1018.01
1011.92 1013.33 1014.71 1016.24 1017.69 1018.00 1016.94 1015.97 1014.94 1014.29 1014.78 1014.87 1014.70 1014.60 1014.09 1013.92 1013.03 1012.76 1012.90 1013.79 1014.90 1015.46 1016.51 1016.62 1016.97 1017.98 1018.48 1019.04 1019.39 1019.74 1019.85 1019.72 1019.43 1019.54 1019.58 1019.43 1019.09 1018.95 1018.84 1018.82 1018.82 1018.60 1018.29 1018.15 1018.23 1018.06 1017.77 1017.80 1017.37
1012.44 1013.68 1015.46 1016.69 1017.74 1018.02 1017.73 1015.60 1014.26 1014.28 1014.82 1014.91 1015.18 1015.20 1014.92 1014.70 1013.84 1013.66 1013.61 1014.34 1014.92 1015.87 1016.39 1016.59 1017.12 1017.65 1018.06 1018.67 1019.06 1019.36 1019.39 1019.38 1019.31 1019.33 1019.18 1018.89 1018.71 1018.58 1018.54 1018.37 1018.28 1018.11 1017.86 1017.64 1017.59 1017.36 1017.21 1017.08 1016.69
1012.08 1013.25 1014.65 1016.59 1017.70 1018.12 1017.56 1015.34 1014.09 1014.25 1014.60 1014.82 1015.21 1015.32 1015.37 1014.99 1014.35 1014.25 1014.58 1014.98 1015.42 1015.32 1015.90 1016.51 1017.21 1017.57 1017.63 1018.14 1018.55 1018.93 1019.09 1019.15 1019.09 1018.95 1018.65 1018.37 1018.36 1018.14 1017.99 1017.87 1017.82 1017.67 1017.39 1017.15 1017.09 1016.87 1016.48 1016.22 1015.87
Wind_Speed
8 7 2 3 5 7 3 5 2 2 4 3 7 4 8 4 2 3 3 6 5 5 5 5 6 5 6 5 6 7 6 6 7 8 8 9 10 9 11 12 11 11 10 10 10 12 12 11 11
4 4 2 3 7 5 4 5 4 4 9 10 11 5 7 3 3 4 2 4 6 3 3 4 7 5 5 5 5 6 6 6 6 7 7 9 10 10 10 10 11 11 9 9 11 12 13 12 11
3 4 6 6 3 3 2 2 8 3 4 1 4 5 3 3 2 6 3 6 6 1 4 5 7 6 5 4 5 6 8 8 8 8 9 9 9 8 9 10 12 13 11 10 9 9 10 11 13
2 3 6 7 3 3 4 3 5 7 6 6 6 6 3 1 8 4 9 7 6 3 2 6 7 6 4 3 8 9 10 10 11 11 9 8 7 6 6 8 9 11 12 12 10 10 10 10 11
3 5 7 4 6 4 6 2 5 4 3 5 3 5 3 5 11 9 5 4 6 4 3 4 6 5 4 7 10 10 11 12 12 10 8 4 3 3 4 5 7 9 10 11 12 11 10 10 11
5 4 5 4 3 4 3 2 3 4 5 6 7 6 4 4 7 6 6 7 5 5 5 6 5 4 7 11 11 10 11 9 10 10 11 2 0 3 8 8 8 9 11 11 12 12 9 9 12
6 4 5 4 1 3 4 1 1 3 4 2 2 5 3 10 6 8 7 7 6 6 6 5 5 4 11 12 11 10 10 10 11 11 14 14 13 12 10 6 8 8 11 11 12 11 12 13 14
5 6 3 4 6 4 3 3 1 3 4 2 2 5 5 3 8 7 8 9 9 8 6 6 4 4 5 5 10 10 9 10 10 12 15 13 13 14 15 13 11 11 13 13 13 13 14 15 15
3 6 2 6 7 5 2 3 1 2 3 3 4 4 11 10 7 7 7 6 4 5 5 6 5 3 4 5 5 7 9 8 11 11 12 10 5 6 8 11 15 13 13 13 14 13 14 14 14
5 4 8 6 5 4 6 4 7 4 2 5 10 12 10 8 7 9 7 5 2 3 4 5 5 3 3 3 4 5 4 2 4 5 6 5 6 5 6 10 14 13 14 14 15 15 14 12 4
3 4 5 5 5 9 6 3 3 10 3 11 18 11 8 7 6 8 6 5 5 2 2 4 4 4 5 4 3 2 2 1 4 6 5 5 4 4 4 4 4 4 10 5 7 7 4 6 5
3 1 6 8 8 8 9 4 2 2 4 9 10 14 7 8 7 8 7 6 5 3 1 2 3 4 4 3 2 3 2 2 3 2 4 4 3 4 4 3 4 4 4 5 5 4 5 6 5
3 1 4 5 10 7 7 6 7 5 8 12 12 10 10 8 7 4 6 5 5 5 4 2 0 2 1 3 3 3 3 3 2 2 3 4 4 4 3 4 3 3 4 4 5 4 4 5 6
0 2 5 3 6 6 10 3 6 4 13 14 12 11 10 11 10 6 6 7 6 5 5 3 3 2 2 3 3 3 3 3 2 2 2 4 3 3 4 4 3 4 4 4 4 4 4 4 4
3 5 4 3 5 5 7 2 6 9 13 14 11 10 9 8 9 10 8 6 7 5 5 6 5 3 2 2 3 2 4 3 2 2 1 3 3 3 4 3 3 3 4 5 5 5 4 4 4
4 4 4 5 7 6 5 8 8 11 14 14 12 10 9 8 10 6 7 7 7 6 6 6 5 4 3 1 1 2 3 3 2 2 1 3 3 4 4 3 3 4 4 4 4 4 4 4 4
6 2 3 2 8 5 6 6 9 14 14 14 12 10 9 6 7 7 8 8 8 7 7 5 5 4 3 3 3 3 4 3 2 1 1 2 3 4 4 3 2 4 4 4 3 3 3 4 5
5 2 5 6 7 7 9 13 6 18 17 16 12 8 10 12 16 11 10 8 7 7 7 5 4 4 3 1 2 1 2 2 2 3 3 2 1 2 3 2 2 3 3 4 4 3 3 2 4
4 2 5 3 7 7 11 11 7 17 16 13 12 12 12 15 8 10 10 8 7 6 6 7 5 5 1 0 1 1 1 2 2 3 3 2 1 1 2 1 1 2 3 3 4 3 4 4 6
4 2 5 5 3 3 1 3 8 16 21 13 9 10 14 9 8 10 9 9 11 9 7 6 7 5 3 2 2 1 2 2 2 1 2 2 2 2 2 1 1 1 2 4 4 4 4 2 4
3 6 6 5 2 3 1 5 6 2 3 7 6 8 12 14 15 14 15 15 9 9 8 7 7 7 5 4 1 1 2 2 1 1 2 3 4 3 3 3 2 1 1 2 2 3 4 3 3
4 8 4 4 3 1 3 5 6 3 6 8 9 14 13 17 17 16 17 15 15 10 8 8 7 8 6 4 2 2 3 3 2 1 3 4 4 5 4 3 3 2 1 3 2 1 1 1 3
2 8 4 3 3 3 4 4 9 1 4 8 12 14 11 15 18 20 20 19 12 9 10 9 7 7 7 6 4 4 3 2 1 1 3 2 3 4 4 4 4 4 2 3 4 2 2 1 1
8 6 7 4 4 5 3 3 7 4 5 6 5 6 9 14 18 17 15 12 12 10 10 7 8 8 7 7 7 6 6 4 1 1 0 2 2 3 5 5 4 5 4 4 4 3 4 4 3
7 6 4 6 6 6 1 1 10 6 8 9 7 11 14 9 11 13 16 14 9 8 5 7 9 8 7 7 6 7 6 6 5 5 3 4 3 3 6 5 5 4 5 5 4 5 5 4 4
2 5 7 4 2 5 3 4 7 4 7 5 6 7 7 2 7 8 8 13 16 12 7 13 9 7 6 6 7 5 5 4 4 4 4 4 4 5 5 6 6 6 6 6 5 4 4 4 5
3 2 5 5 2 3 3 7 9 1 5 8 6 7 8 8 8 8 10 12 17 18 21 12 3 2 5 6 4 5 5 6 5 6 4 4 5 4 6 6 6 7 7 7 5 5 6 4 5
3 3 4 3 0 3 5 5 6 5 2 1 5 7 10 9 11 3 8 12 14 15 8 9 10 9 7 6 5 6 7 7 6 5 7 7 6 5 6 6 6 7 6 6 6 5 7 6 6
2 2 6 5 5 5 3 8 6 5 2 7 5 8 9 9 8 5 3 8 10 7 6 2 6 8 7 6 6 7 7 7 6 6 7 7 6 7 7 7 7 7 7 7 6 7 7 7 9
2 4 6 6 4 1 3 9 3 4 4 6 3 6 6 7 7 5 2 5 4 9 8 6 5 6 7 6 6 7 7 6 7 7 8 7 7 7 8 7 6 7 7 7 7 9 8 9 10
Wind_Direction
172 168 139 70 64 65 3 316 77 174 50 357 79 88 96 22 77 190 305 184 114 153 192 188 175 146 119 108 86 76 68 60 51 46 43 55 56 48 42 33 26 13 3 352 347 348 352 344 340
158 174 51 66 71 47 314 336 46 78 136 120 89 74 61 53 88 114 113 197 117 170 203 185 173 146 126 106 90 79 67 56 56 53 58 61 64 58 51 40 19 4 360 359 351 354 352 346 340
316 279 73 77 81 103 201 14 134 109 170 96 94 41 62 105 69 171 225 130 114 151 213 189 152 140 123 107 96 69 60 52 47 52 57 65 69 59 49 34 22 18 13 1 352 346 340 337 330
215 21 45 72 49 254 187 194 146 119 84 97 119 67 34 38 162 185 112 137 135 145 137 148 131 120 98 63 66 64 60 52 55 55 55 60 66 54 40 26 26 27 31 33 23 9 357 347 332
43 57 55 50 9 4 42 5 315 73 81 65 117 122 72 23 79 94 116 128 129 82 65 106 111 98 69 93 89 81 78 69 53 40 28 30 49 15 359 353 2 17 14 8 5 2 352 350 350
42 78 61 45 7 336 13 29 7 113 109 80 94 106 30 70 67 78 78 77 81 82 55 47 88 103 103 92 91 96 85 67 52 38 19 27 230 352 321 316 332 3 6 360 7 10 16 4 2
96 74 113 158 26 309 180 266 250 245 148 98 147 77 73 62 70 62 64 76 67 50 53 35 24 88 111 107 107 90 70 61 54 41 50 55 43 27 8 335 325 15 16 12 14 16 13 3 4
99 84 104 196 177 240 194 136 247 316 11 320 22 140 160 119 73 66 58 63 56 44 45 37 33 81 101 114 115 96 76 64 63 60 50 45 36 29 29 29 33 16 17 7 13 12 7 5 0
115 69 169 193 162 222 124 121 6 304 111 27 12 99 124 122 109 79 55 41 64 59 36 34 33 134 127 115 121 99 80 67 63 57 50 38 20 15 18 34 22 20 20 26 23 18 17 16 8
84 104 210 184 168 172 156 151 176 129 107 55 84 93 116 127 142 124 127 118 77 41 32 34 35 71 150 116 90 95 79 53 67 60 50 39 26 9 44 32 28 22 30 23 16 10 9 8 348
156 179 183 203 161 134 144 186 215 136 214 174 153 146 139 135 124 123 125 132 122 109 65 32 46 54 86 97 108 100 63 343 57 45 44 32 24 5 26 22 8 2 24 15 6 360 357 346 347
117 223 185 158 162 143 161 149 141 213 208 143 151 145 135 154 160 149 135 136 143 151 79 8 66 58 55 86 120 157 140 65 61 42 54 46 25 20 28 20 8 6 4 8 3 349 336 342 346
55 178 175 181 149 152 133 195 166 220 129 125 137 152 162 170 163 142 145 143 147 159 167 184 91 90 95 112 137 148 144 97 106 74 66 54 41 35 28 18 25 11 354 8 354 345 344 342 344
280 62 90 119 157 145 167 202 133 179 140 150 163 175 180 174 166 144 165 170 172 177 193 190 206 167 130 135 115 123 141 149 124 80 96 66 66 66 51 35 33 11 4 348 345 337 340 337 338
53 62 25 156 170 169 116 305 229 151 156 163 182 190 191 190 168 178 179 178 172 192 204 201 201 200 138 135 111 162 170 149 148 115 120 88 74 76 60 46 28 355 345 350 356 344 341 353 346
100 65 156 215 189 190 130 251 208 169 164 183 191 204 196 190 191 177 179 187 185 168 201 216 229 180 170 246 231 150 206 154 164 148 172 95 92 83 61 63 20 346 0 2 357 339 337 344 358
36 217 238 224 206 147 206 260 188 179 187 197 199 200 194 190 191 194 196 193 185 184 186 217 227 209 242 285 261 151 198 194 192 162 204 117 91 87 79 52 6 357 9 7 345 323 340 335 346
240 230 242 217 198 175 204 253 180 190 197 198 203 209 200 197 208 191 194 191 191 191 190 214 225 221 253 323 331 129 156 175 203 222 219 160 148 94 82 49 40 6 14 1 354 344 329 311 330
167 159 263 236 214 159 219 243 219 200 212 206 200 205 208 215 201 187 190 187 187 191 193 204 200 224 183 210 137 122 196 188 241 230 233 197 208 100 92 42 21 22 35 342 351 336 349 327 344
161 196 254 310 40 110 251 310 310 196 212 206 217 216 222 212 183 192 194 196 190 190 198 206 219 209 213 198 221 158 163 210 205 223 255 228 216 203 159 162 249 345 20 10 6 20 335 335 3
210 183 227 178 87 56 340 313 330 333 213 201 214 221 213 206 202 188 198 199 197 190 183 204 218 216 218 210 140 99 71 37 46 319 287 254 222 204 170 194 224 223 32 355 338 360 19 346 327
239 197 159 147 106 245 34 286 289 322 299 247 225 228 216 213 205 198 196 193 197 194 178 199 202 209 211 199 172 167 166 171 236 184 265 263 216 218 195 196 233 212 240 299 300 347 349 34 344
269 69 55 90 120 78 356 57 274 57 274 246 254 259 234 220 209 203 201 198 177 169 192 193 193 208 196 180 173 160 181 187 167 210 286 208 205 229 227 208 222 231 222 264 270 283 268 252 265
153 76 54 47 59 29 281 107 285 263 237 301 262 292 261 220 218 210 198 179 172 177 184 185 188 209 199 176 183 182 189 199 209 220 279 231 251 261 256 247 244 253 228 243 250 253 232 233 245
51 64 3 7 3 226 28 45 241 259 241 233 329 317 315 228 218 198 182 177 161 184 204 207 192 210 201 181 189 201 204 190 199 220 202 210 229 244 245 235 242 251 249 243 243 254 243 230 223
72 128 140 245 249 271 5 249 267 240 335 44 42 286 315 287 224 211 188 157 153 133 223 266 225 207 210 195 206 208 224 212 222 219 201 221 224 239 257 250 249 252 260 260 247 273 287 266 252
171 73 165 108 15 39 260 289 315 10 28 30 319 350 335 310 243 216 182 145 149 165 211 186 205 226 223 236 226 232 226 221 219 222 227 236 238 239 249 233 254 256 253 259 261 261 265 262 263
127 122 41 19 1 304 295 288 243 303 188 9 1 325 309 324 296 252 147 157 157 186 174 164 166 188 203 222 217 227 231 227 230 230 240 236 251 250 252 252 244 253 256 259 257 262 263 256 262
346 35 57 107 125 169 276 276 213 270 217 199 254 290 303 299 290 287 148 100 139 130 142 159 136 185 196 206 218 231 234 235 237 237 247 244 254 252 251 250 259 258 258 257 252 251 261 256 262
159 156 133 123 241 225 152 275 19 99 122 175 233 290 316 288 300 285 65 107 137 152 150 159 200 213 201 207 215 223 236 241 246 246 250 246 251 258 246 251 256 263 259 258 253 260 257 249 254